map of ICN home
ICN - Airport
Location
City:  Seoul, Republic of Korea (South Korea)
Name:Incheon International Airport
ICAO:RKSI
IATA:ICN

Details
Type:Airport (Aerodrome, Airfield)
Use:Public/Civil, International (customs port of entry)
Latitude:3728'09"N (37.469075)
Longitude:12627'02"E (126.450517)
Datum:WGS 1984
Elevation:23 ft (7 m)
Variation:8.30W (WMM2015 magnetic declination)
-0.07 annual change
Runways:2
Longest:12303 × 197 ft (3750 × 60 m), paved

Time
Time Zone:UTC+9
Local Time:

Weather
METAR:RKSI 280300Z 18005KT 140V250 8000 FEW025 SCT090 27/16 Q1012 NOSIG
TAF:RKSI 272300Z 2800/2906 17006KT 7000 SCT030 TX28/2805Z TN20/2820Z TX28/2905Z
BECMG 2803/2804 28007KT
BECMG 2811/2812 16006KT NSC
TEMPO 2817/2823 2500 BR FEW005 SCT017
BECMG 2902/2903 27008KT

Related Locations
Nearby:
Farthest:SST: 12255 mi / 19722 km
Santa Teresita, B, AR

Find:

   beyond  
but within

Other Information
Maps:
NOTAMs:
Links:
Sources:

  
flag of Republic of Korea (South Korea)   

Sectional Chart

Flight Planning
at skyvector.com

Satellite Image

Google Maps Satellite view

 

Copyright © 2004-2017 Karl L. Swartz. All rights reserved.
The Great Circle Mapper name and logo are trademarks of the Great Circle Mapper.
All other trademarks mentioned herein belong to their respective owners.
Please see credits for attibutions and further copyright information.

  Follow gcmap on Facebook Follow gcmap on Twitter Follow gcmap on Google+ GCmap on LinkedIn

hCard Microformat

Geo Microformat